Weather History for Williamtown, NW

Change the Weather History Date:

Friday, October 11, 2013

  Actual Average Record
Temperature  
Mean Temperature 66 °F -  
Max Temperature 71 °F - - ()
Min Temperature 57 °F - - ()
Growing Degree Days 16 (Base 50)    
Moisture  
Dew Point 55 °F    
Average Humidity 67    
Maximum Humidity 88    
Minimum Humidity 35    
Precipitation  
Precipitation 0.00 in - - ()
Sea Level Pressure  
Sea Level Pressure 29.86 in    
Wind  
Wind Speed 12 mph ()    
Max Wind Speed 28 mph    
Max Gust Speed 39 mph    
Visibility 6.1 miles    
Events Rain    
T = Trace of Precipitation, MM = Missing Value Source: Averaged Metar Reports

Daily Weather History Graph

Daily Weather History Graph

Search for Another Location

Airport:

Trip Planner

Search our weather history database for the weather conditions in past years. The results will help you decide how hot, cold, wet, or windy it might be!

Date:

Astronomy

Oct. 11, 2013 Rise Set
Actual Time 6:17 AM EST 7:01 PM EST
Civil Twilight 5:52 AM EST 7:26 PM EST
Nautical Twilight 5:23 AM EST 7:56 PM EST
Astronomical Twilight 4:53 AM EST 8:26 PM EST
Moon 11:05 AM EST (10/11) 12:21 AM EST (10/11)
Length of Visible Light 13h 34m
Length of Day
12h 44m
Waxing Crescent, 40% of the Moon is Illuminated
Oct 11
Waxing Crescent
Oct 12
First Quarter
Oct 19
Full
Oct 27
Last Quarter
Nov 3
New

Hourly Weather History & Observations

Time (EST) Temp. Dew Point Humidity Pressure Visibility Wind Dir Wind Speed Gust Speed Precip Events Conditions
12:00 AM 64 °F 47 °F 44% 29.62 in - NNW 6.9 mph - -  
12:00 AM 64.4 °F 48.2 °F 56% 29.62 in 6.2 mi NNW 6.9 mph - N/A   Unknown
12:30 AM 66.2 °F 44.6 °F 46% 29.59 in 6.2 mi NW 8.1 mph - N/A   Unknown
1:00 AM 68.0 °F 42.8 °F 40% 29.59 in 6.2 mi WNW 8.1 mph - N/A   Unknown
1:20 AM 69.8 °F 41.0 °F 35% 29.65 in 6.2 mi SSW 19.6 mph - N/A   Unknown
1:21 AM 71.6 °F 42.8 °F 35% 29.65 in 6.2 mi SSW 20.7 mph 33.4 mph N/A   Unknown
1:30 AM 69.8 °F 60.8 °F 73% 29.68 in - South 24.2 mph 39.1 mph N/A   Unknown
2:00 AM 67 °F 61 °F 75% 29.72 in - South 27.6 mph - -  
2:00 AM 68.0 °F 60.8 °F 78% 29.71 in 5.0 mi South 27.6 mph - N/A   Mostly Cloudy
2:04 AM 66.2 °F 60.8 °F 83% 29.71 in 5.0 mi South 26.5 mph - N/A   Mostly Cloudy
2:13 AM 66.2 °F 60.8 °F 83% 29.71 in 5.0 mi South 23.0 mph 34.5 mph N/A   Mostly Cloudy
2:30 AM 66.2 °F 60.8 °F 83% 29.71 in 5.6 mi South 20.7 mph - N/A   Overcast
2:32 AM 66.2 °F 59.0 °F 78% 29.74 in 5.6 mi South 21.9 mph 33.4 mph N/A   Overcast
2:51 AM 66.2 °F 59.0 °F 78% 29.74 in 5.6 mi South 23.0 mph 35.7 mph N/A   Overcast
3:00 AM 67 °F 59 °F 68% 29.76 in - South 23.0 mph - -  
3:00 AM 66.2 °F 59.0 °F 78% 29.74 in 6.2 mi South 23.0 mph - N/A   Overcast
3:30 AM 66.2 °F 59.0 °F 78% 29.77 in 6.2 mi South 20.7 mph - N/A   Overcast
4:00 AM 66.2 °F 57.2 °F 73% 29.77 in 6.2 mi South 17.3 mph - N/A   Overcast
4:30 AM 66.2 °F 57.2 °F 73% 29.80 in 6.2 mi South 15.0 mph - N/A   Overcast
5:00 AM 66 °F 58 °F 67% 29.81 in - South 15.0 mph - -  
5:00 AM 66.2 °F 57.2 °F 73% 29.80 in 6.2 mi South 15.0 mph - N/A   Overcast
5:30 AM 64.4 °F 57.2 °F 77% 29.80 in 6.2 mi South 8.1 mph - N/A   Overcast
6:00 AM 64 °F 58 °F 75% 29.83 in - Calm Calm - -  
6:00 AM 64.4 °F 57.2 °F 77% 29.83 in 6.2 mi Calm Calm - N/A   Overcast
6:30 AM 64.4 °F 57.2 °F 77% 29.83 in 6.2 mi North 4.6 mph - N/A   Scattered Clouds
7:00 AM 64.4 °F 57.2 °F 77% 29.83 in 6.2 mi North 4.6 mph - N/A   Scattered Clouds
7:30 AM 64.4 °F 59.0 °F 83% 29.83 in 6.2 mi North 4.6 mph - N/A   Mostly Cloudy
8:00 AM 65 °F 59 °F 74% 29.87 in - Calm Calm - -  
8:00 AM 64.4 °F 59.0 °F 83% 29.86 in 6.2 mi Calm Calm - N/A   Mostly Cloudy
8:30 AM 64.4 °F 59.0 °F 83% 29.86 in 6.2 mi SE 8.1 mph - N/A Rain Light Rain Showers
9:00 AM 67 °F 60 °F 70% 29.89 in - SE 9.2 mph - -   Overcast
9:00 AM 68.0 °F 59.0 °F 73% 29.86 in 6.2 mi SE 9.2 mph - N/A   Mostly Cloudy
9:30 AM 69.8 °F 59.0 °F 68% 29.89 in 6.2 mi SSE 12.7 mph - N/A   Partly Cloudy
10:00 AM 69.8 °F 57.2 °F 64% 29.89 in - SE 10.4 mph - N/A   Unknown
10:27 AM 68.0 °F 59.0 °F 73% 29.92 in 5.6 mi South 18.4 mph - N/A Rain Light Rain Showers
11:00 AM 64 °F 58 °F 75% 29.96 in - SSE 16.1 mph - -  
11:00 AM 64.4 °F 59.0 °F 83% 29.95 in 5.6 mi SSE 16.1 mph - N/A Rain Light Rain Showers
11:30 AM 66.2 °F 57.2 °F 73% 29.95 in 6.2 mi South 13.8 mph - N/A   Mostly Cloudy
12:00 PM 67 °F 54 °F 53% 29.97 in - South 15.0 mph - -  
12:00 PM 68.0 °F 53.6 °F 60% 29.95 in 6.2 mi South 15.0 mph - N/A   Mostly Cloudy
12:30 PM 68.0 °F 53.6 °F 60% 29.95 in 6.2 mi South 15.0 mph - N/A   Mostly Cloudy
1:00 PM 69.8 °F 51.8 °F 53% 29.95 in 6.2 mi SSE 16.1 mph - N/A   Scattered Clouds
1:30 PM 69.8 °F 51.8 °F 53% 29.95 in 6.2 mi SSE 15.0 mph - N/A   Scattered Clouds
2:00 PM 69 °F 50 °F 41% 29.96 in - SSE 15.0 mph - -  
2:00 PM 68.0 °F 50.0 °F 52% 29.95 in 6.2 mi SSE 15.0 mph - N/A   Partly Cloudy
2:30 PM 69.8 °F 50.0 °F 49% 29.95 in 6.2 mi SE 13.8 mph - N/A   Partly Cloudy
3:00 PM 69 °F 51 °F 43% 29.94 in - ESE 12.7 mph - -  
3:00 PM 68.0 °F 51.8 °F 56% 29.92 in 6.2 mi ESE 12.7 mph - N/A   Unknown
3:30 PM 69.8 °F 50.0 °F 49% 29.92 in 6.2 mi SSE 17.3 mph - N/A   Unknown
4:00 PM 68.0 °F 50.0 °F 52% 29.92 in 6.2 mi ESE 12.7 mph - N/A   Unknown
4:30 PM 69.8 °F 51.8 °F 53% 29.92 in 6.2 mi ESE 13.8 mph - N/A   Unknown
5:00 PM 68.0 °F 50.0 °F 52% 29.92 in 6.2 mi ESE 12.7 mph - N/A   Unknown
5:30 PM 68.0 °F 51.8 °F 56% 29.92 in 6.2 mi East 12.7 mph - N/A   Unknown
6:00 PM 67 °F 52 °F 49% 29.94 in - East 11.5 mph - -  
6:00 PM 68.0 °F 51.8 °F 56% 29.92 in 6.2 mi East 11.5 mph - N/A   Unknown
6:30 PM 66.2 °F 51.8 °F 60% 29.92 in 6.2 mi East 11.5 mph - N/A   Unknown
7:00 PM 64.4 °F 53.6 °F 68% 29.95 in 6.2 mi East 8.1 mph - N/A   Unknown
7:30 PM 64.4 °F 53.6 °F 68% 29.95 in 6.2 mi East 8.1 mph - N/A   Unknown
8:00 PM 63 °F 53 °F 62% 29.98 in - ENE 5.8 mph - -  
8:00 PM 62.6 °F 53.6 °F 72% 29.98 in 6.2 mi ENE 5.8 mph - N/A   Unknown
8:30 PM 62.6 °F 53.6 °F 72% 29.98 in 6.2 mi ENE 5.8 mph - N/A   Unknown
9:00 PM 61 °F 54 °F 71% 30.01 in - East 6.9 mph - -  
9:00 PM 60.8 °F 53.6 °F 77% 29.98 in 6.2 mi East 6.9 mph - N/A   Unknown
9:30 PM 62.6 °F 53.6 °F 72% 30.01 in 6.2 mi ENE 4.6 mph - N/A   Unknown
10:00 PM 60.8 °F 55.4 °F 82% 30.01 in 6.2 mi ENE 5.8 mph - N/A   Unknown
10:30 PM 60.8 °F 55.4 °F 82% 30.01 in 6.2 mi ENE 4.6 mph - N/A   Unknown
11:00 PM 61 °F 54 °F 73% 30.01 in - ENE 5.8 mph - -  
11:00 PM 60.8 °F 55.4 °F 82% 30.01 in 6.2 mi ENE 5.8 mph - N/A   Unknown
11:30 PM 57.2 °F 53.6 °F 88% 30.01 in 6.2 mi East 4.6 mph - N/A   Unknown